TimeEDT,TemperatureF,Dew PointF,Humidity,Sea Level PressureIn,VisibilityMPH,Wind Direction,Wind SpeedMPH,Gust SpeedMPH,PrecipitationIn,Events,Conditions,WindDirDegrees,DateUTC
12:53 AM,44.1,35.1,71,29.75,10.0,ENE,4.6,-,N/A,,Overcast,70,2013-03-24 04:53:00
1:53 AM,45.0,36.0,71,29.79,10.0,NNE,4.6,-,N/A,,Overcast,30,2013-03-24 05:53:00
2:53 AM,46.0,36.0,68,29.79,10.0,Calm,Calm,-,N/A,,Overcast,0,2013-03-24 06:53:00
3:53 AM,44.1,37.9,79,29.74,10.0,East,4.6,-,0.01,Rain,Light Rain,80,2013-03-24 07:53:00
4:53 AM,43.0,37.9,82,29.71,10.0,East,3.5,-,0.02,Rain,Light Rain,90,2013-03-24 08:53:00
5:53 AM,42.1,39.9,92,29.70,6.0,Calm,Calm,-,0.04,Rain,Light Rain,0,2013-03-24 09:53:00
6:53 AM,43.0,39.9,89,29.67,5.0,ENE,3.5,-,0.07,Rain,Light Rain,60,2013-03-24 10:53:00
7:53 AM,43.0,41.0,93,29.68,3.0,Calm,Calm,-,0.11,Rain,Rain,0,2013-03-24 11:53:00
8:17 AM,43.0,41.0,93,29.70,2.5,ESE,3.5,-,0.06,Rain,Rain,110,2013-03-24 12:17:00
8:53 AM,43.0,42.1,97,29.66,2.0,ENE,4.6,-,0.11,Rain,Rain,60,2013-03-24 12:53:00
9:53 AM,44.1,42.1,93,29.64,4.0,East,8.1,-,0.10,Rain,Light Rain,100,2013-03-24 13:53:00
10:13 AM,44.1,42.1,93,29.63,10.0,East,8.1,-,0.01,Rain,Light Rain,80,2013-03-24 14:13:00
10:53 AM,45.0,43.0,93,29.60,10.0,ENE,5.8,-,0.01,Rain,Light Rain,70,2013-03-24 14:53:00
11:53 AM,46.9,42.1,83,29.59,10.0,Variable,4.6,-,0.00,Rain,Light Rain,0,2013-03-24 15:53:00
12:53 PM,46.0,39.9,79,29.57,4.0,SE,8.1,-,0.04,Rain,Light Rain,130,2013-03-24 16:53:00
1:05 PM,45.0,39.9,82,29.60,5.0,SE,6.9,-,0.02,Rain,Rain,130,2013-03-24 17:05:00
1:53 PM,46.0,41.0,83,29.56,10.0,SE,6.9,-,0.05,Rain,Light Rain,130,2013-03-24 17:53:00
2:53 PM,48.9,42.1,77,29.50,10.0,SE,8.1,-,0.00,,Mostly Cloudy,130,2013-03-24 18:53:00
3:53 PM,52.0,45.0,77,29.44,10.0,NE,8.1,-,N/A,,Mostly Cloudy,50,2013-03-24 19:53:00
4:53 PM,53.1,45.0,74,29.40,10.0,ENE,9.2,-,N/A,,Overcast,60,2013-03-24 20:53:00
5:53 PM,53.1,44.1,71,29.37,10.0,ENE,6.9,-,N/A,,Overcast,60,2013-03-24 21:53:00
6:53 PM,52.0,42.1,69,29.39,10.0,ESE,12.7,-,N/A,,Overcast,120,2013-03-24 22:53:00
7:53 PM,48.9,39.0,69,29.37,10.0,ESE,12.7,20.7,N/A,,Overcast,110,2013-03-24 23:53:00
8:53 PM,46.0,39.9,79,29.40,6.0,SW,5.8,-,0.04,Rain,Rain,230,2013-03-25 00:53:00
9:36 PM,46.0,43.0,89,29.47,6.0,West,10.4,19.6,0.06,Rain,Rain,270,2013-03-25 01:36:00
9:53 PM,46.0,42.1,86,29.48,4.0,West,16.1,31.1,0.12,Rain,Heavy Rain,270,2013-03-25 01:53:00
10:05 PM,45.0,41.0,86,29.52,10.0,WSW,13.8,26.5,0.02,Rain,Light Rain,250,2013-03-25 02:05:00
10:27 PM,45.0,41.0,86,29.53,10.0,SW,9.2,20.7,0.03,Rain,Light Rain,230,2013-03-25 02:27:00
10:53 PM,44.1,41.0,89,29.49,10.0,SSW,6.9,-,0.04,Rain,Light Rain,200,2013-03-25 02:53:00
11:53 PM,43.0,41.0,93,29.47,6.0,South,5.8,-,0.01,Rain,Light Rain,180,2013-03-25 03:53:00